Location: *
(43.4667°N, 11.6833°E)
Time: 22:07:20
(UTC+00:00)

Cosmos 2242 Rocket - Pass Details

Date: 19 July 2019
Orbit: 619 x 651 km, 82.5° (Epoch: 24 August)

Event Time Altitude Azimuth Distance (km) Brightness Sun altitude
Rises 22:38:08 0° 346° (NNW) 2,961 8.4 -25.1°
Reaches altitude 10° 22:40:25 10° 342° (NNW) 2,051 7.3 -25.1°
Enters shadow 22:44:46 52° 270° (W) 809 4.1 -25.3°
